contact:dominique.lefevre@mio.osupytheas.fr, maurice.libes@osupytheas.fr, didier.mallarino@osupytheas.fr
Project:EMSO http://www.emso-fr.org/EMSO-France
Depth: 2436.0 m
Title:EMSO Ligure Ouest : Data MII capteur CSTAR
DateTime,Latitude,Longitude,Instrument_Serial,Reference_Counts,Signal_Counts,Corrected_Signal_raw_counts,Calculated_Beam_c_inverse_meters,Internal_thermistor_counts
DateTime,Latitude,Longitude,Instrument_Serial,Reference_Counts,Signal_Counts,Corrected_Signal_raw_counts,Calculated_Beam_c_inverse_meters,Internal_thermistor_counts
2019-08-27T00:00:27,42.805,6.029,CST-1368DR,8168,11430,15406,0.054,551
2019-08-27T00:03:29,42.805,6.029,CST-1368DR,8168,11430,15406,0.054,551
2019-08-27T00:06:30,42.805,6.029,CST-1368DR,8168,11430,15406,0.054,551
2019-08-27T00:09:32,42.805,6.029,CST-1368DR,8168,11429,15405,0.054,551
2019-08-27T00:12:34,42.805,6.029,CST-1368DR,8167,11429,15407,0.054,551
2019-08-27T00:15:35,42.805,6.029,CST-1368DR,8167,11429,15407,0.054,551
2019-08-27T00:18:37,42.805,6.029,CST-1368DR,8167,11427,15404,0.055,551
2019-08-27T00:21:39,42.805,6.029,CST-1368DR,8167,11428,15405,0.054,551
2019-08-27T00:24:40,42.805,6.029,CST-1368DR,8167,11430,15407,0.054,551
2019-08-27T00:27:42,42.805,6.029,CST-1368DR,8167,11428,15406,0.054,551
2019-08-27T00:30:44,42.805,6.029,CST-1368DR,8167,11428,15405,0.054,551
2019-08-27T00:33:45,42.805,6.029,CST-1368DR,8167,11372,15330,0.074,551
2019-08-27T00:36:47,42.805,6.029,CST-1368DR,8167,11430,15407,0.054,551
2019-08-27T00:39:49,42.805,6.029,CST-1368DR,8167,11429,15407,0.054,551
2019-08-27T00:42:50,42.805,6.029,CST-1368DR,8167,11430,15407,0.054,551
2019-08-27T00:45:52,42.805,6.029,CST-1368DR,8167,11431,15410,0.053,551
2019-08-27T00:48:54,42.805,6.029,CST-1368DR,8167,11431,15409,0.053,551
2019-08-27T00:51:55,42.805,6.029,CST-1368DR,8167,11429,15406,0.054,551
2019-08-27T00:54:57,42.805,6.029,CST-1368DR,8167,11431,15410,0.053,551
2019-08-27T00:57:59,42.805,6.029,CST-1368DR,8167,11430,15409,0.053,550
2019-08-27T01:01:00,42.805,6.029,CST-1368DR,8167,11429,15407,0.054,551
2019-08-27T01:04:02,42.805,6.029,CST-1368DR,8167,11430,15408,0.054,551
2019-08-27T01:07:04,42.805,6.029,CST-1368DR,8167,11430,15407,0.054,551
2019-08-27T01:10:05,42.805,6.029,CST-1368DR,8167,11430,15408,0.054,551
2019-08-27T01:13:07,42.805,6.029,CST-1368DR,8167,11430,15408,0.054,551
2019-08-27T01:16:09,42.805,6.029,CST-1368DR,8167,11427,15403,0.055,551
2019-08-27T01:19:10,42.805,6.029,CST-1368DR,8167,11426,15402,0.055,550
2019-08-27T01:22:12,42.805,6.029,CST-1368DR,8167,11428,15405,0.054,551
2019-08-27T01:25:14,42.805,6.029,CST-1368DR,8167,11428,15406,0.054,551
2019-08-27T01:28:16,42.805,6.029,CST-1368DR,8167,11429,15407,0.054,551
2019-08-27T01:31:17,42.805,6.029,CST-1368DR,8167,11420,15394,0.057,550
2019-08-27T01:34:19,42.805,6.029,CST-1368DR,8167,11429,15406,0.054,551
2019-08-27T01:37:21,42.805,6.029,CST-1368DR,8167,11425,15402,0.055,550
2019-08-27T01:40:22,42.805,6.029,CST-1368DR,8167,11428,15405,0.054,551
2019-08-27T01:43:24,42.805,6.029,CST-1368DR,8167,11428,15406,0.054,551
2019-08-27T01:46:26,42.805,6.029,CST-1368DR,8167,11428,15406,0.054,551
2019-08-27T01:49:27,42.805,6.029,CST-1368DR,8167,11431,15410,0.053,551
2019-08-27T01:52:29,42.805,6.029,CST-1368DR,8167,11428,15405,0.054,551
2019-08-27T01:55:31,42.805,6.029,CST-1368DR,8167,11426,15402,0.055,551
2019-08-27T01:58:32,42.805,6.029,CST-1368DR,8167,11427,15404,0.055,551
2019-08-27T02:01:34,42.805,6.029,CST-1368DR,8167,11429,15406,0.054,551
2019-08-27T02:04:36,42.805,6.029,CST-1368DR,8167,11426,15403,0.055,551
2019-08-27T02:07:37,42.805,6.029,CST-1368DR,8167,11429,15406,0.054,551
2019-08-27T02:10:39,42.805,6.029,CST-1368DR,8167,11428,15406,0.054,551
2019-08-27T02:13:40,42.805,6.029,CST-1368DR,8167,11429,15406,0.054,551
2019-08-27T02:16:42,42.805,6.029,CST-1368DR,8167,11429,15406,0.054,551
2019-08-27T02:19:44,42.805,6.029,CST-1368DR,8167,11428,15405,0.054,551
2019-08-27T02:22:45,42.805,6.029,CST-1368DR,8167,11428,15406,0.054,551
2019-08-27T02:25:47,42.805,6.029,CST-1368DR,8167,11426,15402,0.055,551
2019-08-27T02:28:49,42.805,6.029,CST-1368DR,8167,11429,15407,0.054,551
2019-08-27T02:31:51,42.805,6.029,CST-1368DR,8167,11429,15407,0.054,551
2019-08-27T02:34:52,42.805,6.029,CST-1368DR,8167,11425,15401,0.055,551
2019-08-27T02:37:54,42.805,6.029,CST-1368DR,8167,11428,15405,0.054,551
2019-08-27T02:40:56,42.805,6.029,CST-1368DR,8166,11428,15407,0.054,551
2019-08-27T02:43:57,42.805,6.029,CST-1368DR,8166,11427,15405,0.054,551
2019-08-27T02:46:59,42.805,6.029,CST-1368DR,8166,11429,15408,0.054,550
2019-08-27T02:50:01,42.805,6.029,CST-1368DR,8166,11426,15404,0.055,551
2019-08-27T02:53:02,42.805,6.029,CST-1368DR,8166,11427,15405,0.054,551
2019-08-27T02:56:04,42.805,6.029,CST-1368DR,8166,11426,15404,0.055,551
2019-08-27T02:59:05,42.805,6.029,CST-1368DR,8166,11424,15402,0.055,551
2019-08-27T03:02:07,42.805,6.029,CST-1368DR,8166,11425,15403,0.055,551
2019-08-27T03:05:09,42.805,6.029,CST-1368DR,8166,11428,15407,0.054,551
2019-08-27T03:08:10,42.805,6.029,CST-1368DR,8166,11422,15399,0.056,551
2019-08-27T03:11:12,42.805,6.029,CST-1368DR,8166,11426,15404,0.055,551
2019-08-27T03:14:14,42.805,6.029,CST-1368DR,8166,11425,15404,0.055,551
2019-08-27T03:17:15,42.805,6.029,CST-1368DR,8166,11426,15404,0.055,551
2019-08-27T03:20:17,42.805,6.029,CST-1368DR,8166,11426,15405,0.054,551
2019-08-27T03:23:19,42.805,6.029,CST-1368DR,8166,11425,15403,0.055,551
2019-08-27T03:26:20,42.805,6.029,CST-1368DR,8166,11428,15408,0.054,550
2019-08-27T03:29:22,42.805,6.029,CST-1368DR,8166,11426,15405,0.054,551
2019-08-27T03:32:24,42.805,6.029,CST-1368DR,8166,11423,15401,0.055,551
2019-08-27T03:35:25,42.805,6.029,CST-1368DR,8166,11430,15410,0.053,551
2019-08-27T03:38:27,42.805,6.029,CST-1368DR,8166,11428,15407,0.054,551
2019-08-27T03:41:28,42.805,6.029,CST-1368DR,8166,11428,15407,0.054,551
2019-08-27T03:44:30,42.805,6.029,CST-1368DR,8166,11426,15405,0.054,551
2019-08-27T03:47:32,42.805,6.029,CST-1368DR,8166,11423,15400,0.056,551
2019-08-27T03:50:33,42.805,6.029,CST-1368DR,8166,11426,15404,0.055,551
2019-08-27T03:53:35,42.805,6.029,CST-1368DR,8166,11423,15400,0.056,551
2019-08-27T03:56:37,42.805,6.029,CST-1368DR,8166,11428,15407,0.054,551
2019-08-27T03:59:38,42.805,6.029,CST-1368DR,8166,11428,15407,0.054,551
2019-08-27T04:02:40,42.805,6.029,CST-1368DR,8166,11425,15403,0.055,551
2019-08-27T04:05:42,42.805,6.029,CST-1368DR,8166,11427,15405,0.054,551
2019-08-27T04:08:43,42.805,6.029,CST-1368DR,8166,11429,15408,0.054,551
2019-08-27T04:11:45,42.805,6.029,CST-1368DR,8166,11428,15407,0.054,551
2019-08-27T04:14:47,42.805,6.029,CST-1368DR,8166,11427,15406,0.054,551
2019-08-27T04:17:48,42.805,6.029,CST-1368DR,8166,11426,15404,0.055,551
2019-08-27T04:20:50,42.805,6.029,CST-1368DR,8166,11428,15407,0.054,551
2019-08-27T04:23:52,42.805,6.029,CST-1368DR,8166,11426,15404,0.055,551
2019-08-27T04:26:53,42.805,6.029,CST-1368DR,8166,11428,15407,0.054,551
2019-08-27T04:29:55,42.805,6.029,CST-1368DR,8166,11427,15405,0.054,550
2019-08-27T04:32:57,42.805,6.029,CST-1368DR,8166,11425,15403,0.055,551
2019-08-27T04:35:58,42.805,6.029,CST-1368DR,8166,11426,15405,0.054,551
2019-08-27T04:39:00,42.805,6.029,CST-1368DR,8166,11426,15404,0.055,551
2019-08-27T04:42:01,42.805,6.029,CST-1368DR,8166,11424,15401,0.055,551
2019-08-27T04:45:03,42.805,6.029,CST-1368DR,8166,11429,15408,0.054,551
2019-08-27T04:48:05,42.805,6.029,CST-1368DR,8166,11426,15405,0.054,551
2019-08-27T04:51:06,42.805,6.029,CST-1368DR,8166,11429,15408,0.054,551
2019-08-27T04:54:08,42.805,6.029,CST-1368DR,8166,11424,15401,0.055,550
2019-08-27T04:57:10,42.805,6.029,CST-1368DR,8166,11425,15402,0.055,551
2019-08-27T05:00:11,42.805,6.029,CST-1368DR,8166,11426,15404,0.055,551
2019-08-27T05:03:13,42.805,6.029,CST-1368DR,8165,11426,15406,0.054,551
2019-08-27T05:06:15,42.805,6.029,CST-1368DR,8165,11426,15406,0.054,550
2019-08-27T05:09:16,42.805,6.029,CST-1368DR,8165,11426,15406,0.054,551
2019-08-27T05:12:18,42.805,6.029,CST-1368DR,8165,11428,15409,0.053,551
2019-08-27T05:15:19,42.805,6.029,CST-1368DR,8165,11428,15409,0.053,551
2019-08-27T05:18:21,42.805,6.029,CST-1368DR,8165,11427,15407,0.054,550
2019-08-27T05:21:23,42.805,6.029,CST-1368DR,8165,11427,15407,0.054,551
2019-08-27T05:24:24,42.805,6.029,CST-1368DR,8165,11419,15397,0.056,551
2019-08-27T05:27:26,42.805,6.029,CST-1368DR,8165,11428,15409,0.053,551
2019-08-27T05:30:28,42.805,6.029,CST-1368DR,8165,11427,15407,0.054,551
2019-08-27T05:33:29,42.805,6.029,CST-1368DR,8165,11428,15409,0.053,551
2019-08-27T05:36:31,42.805,6.029,CST-1368DR,8165,11427,15407,0.054,551
2019-08-27T05:39:33,42.805,6.029,CST-1368DR,8165,11427,15407,0.054,551
2019-08-27T05:42:34,42.805,6.029,CST-1368DR,8165,11429,15410,0.053,551
2019-08-27T05:45:36,42.805,6.029,CST-1368DR,8165,11428,15409,0.053,551
2019-08-27T05:48:37,42.805,6.029,CST-1368DR,8165,11429,15410,0.053,550
2019-08-27T05:51:39,42.805,6.029,CST-1368DR,8165,11429,15410,0.053,551
2019-08-27T05:54:41,42.805,6.029,CST-1368DR,8165,11424,15404,0.055,551
2019-08-27T05:57:42,42.805,6.029,CST-1368DR,8165,11426,15406,0.054,551
2019-08-27T06:00:44,42.805,6.029,CST-1368DR,8165,11425,15405,0.054,551
2019-08-27T06:03:46,42.805,6.029,CST-1368DR,8165,11427,15408,0.054,550
2019-08-27T06:06:47,42.805,6.029,CST-1368DR,8165,11426,15406,0.054,551
2019-08-27T06:09:49,42.805,6.029,CST-1368DR,8165,11428,15409,0.053,551
2019-08-27T06:12:51,42.805,6.029,CST-1368DR,8165,11428,15409,0.053,551
2019-08-27T06:15:52,42.805,6.029,CST-1368DR,8165,11428,15409,0.053,551
2019-08-27T06:18:54,42.805,6.029,CST-1368DR,8165,11426,15406,0.054,551
2019-08-27T06:21:55,42.805,6.029,CST-1368DR,8165,11425,15405,0.054,551
2019-08-27T06:24:57,42.805,6.029,CST-1368DR,8165,11429,15410,0.053,551
2019-08-27T06:27:59,42.805,6.029,CST-1368DR,8165,11428,15408,0.054,550
2019-08-27T06:31:00,42.805,6.029,CST-1368DR,8165,11427,15407,0.054,550
2019-08-27T06:34:02,42.805,6.029,CST-1368DR,8165,11427,15407,0.054,551
2019-08-27T06:37:04,42.805,6.029,CST-1368DR,8165,11427,15408,0.054,551
2019-08-27T06:40:06,42.805,6.029,CST-1368DR,8165,11426,15406,0.054,551
2019-08-27T06:43:07,42.805,6.029,CST-1368DR,8165,11426,15406,0.054,551
2019-08-27T06:46:09,42.805,6.029,CST-1368DR,8165,11428,15409,0.053,551
2019-08-27T06:49:11,42.805,6.029,CST-1368DR,8165,11427,15408,0.054,551
2019-08-27T06:52:12,42.805,6.029,CST-1368DR,8165,11429,15410,0.053,550
2019-08-27T06:55:14,42.805,6.029,CST-1368DR,8165,11426,15406,0.054,551
2019-08-27T06:58:15,42.805,6.029,CST-1368DR,8165,11428,15409,0.053,551
2019-08-27T07:01:17,42.805,6.029,CST-1368DR,8165,11428,15409,0.053,551
2019-08-27T07:04:19,42.805,6.029,CST-1368DR,8165,11427,15407,0.054,551
2019-08-27T07:07:20,42.805,6.029,CST-1368DR,8165,11428,15408,0.054,551
2019-08-27T07:10:22,42.805,6.029,CST-1368DR,8165,11427,15407,0.054,550
2019-08-27T07:13:24,42.805,6.029,CST-1368DR,8165,11427,15408,0.054,551
2019-08-27T07:16:25,42.805,6.029,CST-1368DR,8165,11428,15409,0.053,551
2019-08-27T07:19:27,42.805,6.029,CST-1368DR,8164,11426,15408,0.054,551
2019-08-27T07:22:28,42.805,6.029,CST-1368DR,8164,11424,15405,0.054,551
2019-08-27T07:25:30,42.805,6.029,CST-1368DR,8164,11422,15402,0.055,551
2019-08-27T07:28:32,42.805,6.029,CST-1368DR,8164,11428,15410,0.053,551
2019-08-27T07:31:33,42.805,6.029,CST-1368DR,8164,11429,15411,0.053,551
2019-08-27T07:34:35,42.805,6.029,CST-1368DR,8164,11425,15407,0.054,551
2019-08-27T07:37:37,42.805,6.029,CST-1368DR,8164,11426,15408,0.054,551
2019-08-27T07:40:38,42.805,6.029,CST-1368DR,8164,11426,15407,0.054,551
2019-08-27T07:43:40,42.805,6.029,CST-1368DR,8164,11425,15406,0.054,551
2019-08-27T07:46:42,42.805,6.029,CST-1368DR,8164,11428,15411,0.053,551
2019-08-27T07:49:43,42.805,6.029,CST-1368DR,8164,11428,15410,0.053,551
2019-08-27T07:52:45,42.805,6.029,CST-1368DR,8164,11422,15402,0.055,551
2019-08-27T07:55:46,42.805,6.029,CST-1368DR,8164,11426,15407,0.054,551
2019-08-27T07:58:48,42.805,6.029,CST-1368DR,8164,11425,15407,0.054,551
2019-08-27T08:01:50,42.805,6.029,CST-1368DR,8164,11425,15407,0.054,551
2019-08-27T08:04:51,42.805,6.029,CST-1368DR,8164,11425,15406,0.054,551
2019-08-27T08:07:53,42.805,6.029,CST-1368DR,8164,11428,15411,0.053,551
2019-08-27T08:10:55,42.805,6.029,CST-1368DR,8164,11426,15408,0.054,551
2019-08-27T08:13:56,42.805,6.029,CST-1368DR,8164,11426,15407,0.054,551
2019-08-27T08:16:58,42.805,6.029,CST-1368DR,8164,11425,15406,0.054,550
2019-08-27T08:20:00,42.805,6.029,CST-1368DR,8164,11425,15406,0.054,551
2019-08-27T08:23:01,42.805,6.029,CST-1368DR,8164,11427,15409,0.053,551
2019-08-27T08:26:03,42.805,6.029,CST-1368DR,8164,11425,15406,0.054,551
2019-08-27T08:29:04,42.805,6.029,CST-1368DR,8164,11425,15407,0.054,551
2019-08-27T08:32:06,42.805,6.029,CST-1368DR,8164,11426,15408,0.054,550
2019-08-27T08:35:08,42.805,6.029,CST-1368DR,8164,11425,15407,0.054,550
2019-08-27T08:38:09,42.805,6.029,CST-1368DR,8164,11425,15406,0.054,551
2019-08-27T08:41:11,42.805,6.029,CST-1368DR,8164,11428,15410,0.053,551
2019-08-27T08:44:13,42.805,6.029,CST-1368DR,8164,11425,15407,0.054,551
2019-08-27T08:47:14,42.805,6.029,CST-1368DR,8164,11427,15410,0.053,551
2019-08-27T08:50:16,42.805,6.029,CST-1368DR,8164,11428,15410,0.053,550
2019-08-27T08:53:18,42.805,6.029,CST-1368DR,8163,11424,15407,0.054,550
2019-08-27T08:56:19,42.805,6.029,CST-1368DR,8164,11428,15410,0.053,551
2019-08-27T08:59:21,42.805,6.029,CST-1368DR,8164,11427,15410,0.053,551
2019-08-27T09:02:22,42.805,6.029,CST-1368DR,8163,11426,15409,0.053,551
2019-08-27T09:05:24,42.805,6.029,CST-1368DR,8163,11426,15410,0.053,551
2019-08-27T09:08:26,42.805,6.029,CST-1368DR,8163,11424,15407,0.054,551
2019-08-27T09:11:27,42.805,6.029,CST-1368DR,8163,11426,15410,0.053,551
2019-08-27T09:14:29,42.805,6.029,CST-1368DR,8163,11424,15407,0.054,551
2019-08-27T09:17:31,42.805,6.029,CST-1368DR,8163,11425,15408,0.054,551
2019-08-27T09:20:32,42.805,6.029,CST-1368DR,8163,11425,15409,0.053,551
2019-08-27T09:23:34,42.805,6.029,CST-1368DR,8163,11383,15352,0.068,551
2019-08-27T09:26:36,42.805,6.029,CST-1368DR,8163,11425,15409,0.053,551
2019-08-27T09:29:37,42.805,6.029,CST-1368DR,8164,11426,15408,0.054,551
2019-08-27T09:32:39,42.805,6.029,CST-1368DR,8163,11423,15406,0.054,551
2019-08-27T09:35:41,42.805,6.029,CST-1368DR,8163,11416,15397,0.056,551
2019-08-27T09:38:42,42.805,6.029,CST-1368DR,8163,11423,15406,0.054,551
2019-08-27T09:41:44,42.805,6.029,CST-1368DR,8163,11426,15410,0.053,551
2019-08-27T09:44:45,42.805,6.029,CST-1368DR,8163,11424,15406,0.054,551
2019-08-27T09:47:47,42.805,6.029,CST-1368DR,8163,11422,15404,0.055,550
2019-08-27T09:50:49,42.805,6.029,CST-1368DR,8163,11423,15406,0.054,551
2019-08-27T09:53:50,42.805,6.029,CST-1368DR,8163,11425,15408,0.054,550
2019-08-27T09:56:52,42.805,6.029,CST-1368DR,8163,11421,15403,0.055,551
2019-08-27T09:59:54,42.805,6.029,CST-1368DR,8163,11422,15404,0.055,551
2019-08-27T10:02:55,42.805,6.029,CST-1368DR,8163,11424,15407,0.054,551
2019-08-27T10:05:57,42.805,6.029,CST-1368DR,8163,11423,15406,0.054,551
2019-08-27T10:08:59,42.805,6.029,CST-1368DR,8163,11422,15404,0.055,551
2019-08-27T10:12:00,42.805,6.029,CST-1368DR,8163,11423,15405,0.054,551
2019-08-27T10:15:02,42.805,6.029,CST-1368DR,8163,11416,15397,0.056,551
2019-08-27T10:18:03,42.805,6.029,CST-1368DR,8163,11424,15407,0.054,551
2019-08-27T10:21:05,42.805,6.029,CST-1368DR,8163,11425,15408,0.054,551
2019-08-27T10:24:07,42.805,6.029,CST-1368DR,8163,11425,15408,0.054,551
2019-08-27T10:27:08,42.805,6.029,CST-1368DR,8163,11422,15404,0.055,551
2019-08-27T10:30:10,42.805,6.029,CST-1368DR,8163,11427,15411,0.053,551
2019-08-27T10:33:12,42.805,6.029,CST-1368DR,8163,11425,15408,0.054,551
2019-08-27T10:36:13,42.805,6.029,CST-1368DR,8163,11421,15403,0.055,551
2019-08-27T10:39:15,42.805,6.029,CST-1368DR,8163,11424,15407,0.054,551
2019-08-27T10:42:17,42.805,6.029,CST-1368DR,8163,11425,15408,0.054,551
2019-08-27T10:45:18,42.805,6.029,CST-1368DR,8163,11425,15408,0.054,551
2019-08-27T10:48:20,42.805,6.029,CST-1368DR,8163,11422,15404,0.055,551
2019-08-27T10:51:21,42.805,6.029,CST-1368DR,8163,11423,15406,0.054,551
2019-08-27T10:54:23,42.805,6.029,CST-1368DR,8163,11422,15404,0.055,551
2019-08-27T10:57:25,42.805,6.029,CST-1368DR,8163,11421,15403,0.055,551
2019-08-27T11:00:26,42.805,6.029,CST-1368DR,8163,11421,15403,0.055,551
2019-08-27T11:03:28,42.805,6.029,CST-1368DR,8163,11425,15408,0.054,551
2019-08-27T11:06:30,42.805,6.029,CST-1368DR,8163,11425,15408,0.054,551
2019-08-27T11:09:31,42.805,6.029,CST-1368DR,8163,11425,15408,0.054,550
2019-08-27T11:12:33,42.805,6.029,CST-1368DR,8163,11421,15403,0.055,551
2019-08-27T11:15:35,42.805,6.029,CST-1368DR,8163,11421,15403,0.055,551
2019-08-27T11:18:36,42.805,6.029,CST-1368DR,8163,11424,15406,0.054,551
2019-08-27T11:21:38,42.805,6.029,CST-1368DR,8163,11421,15402,0.055,551
2019-08-27T11:24:40,42.805,6.029,CST-1368DR,8163,11423,15406,0.054,551
2019-08-27T11:27:41,42.805,6.029,CST-1368DR,8163,11423,15406,0.054,551
2019-08-27T12:05:06,42.805,6.029,CST-1368DR,8159,11419,15408,0.054,551
2019-08-27T12:08:08,42.805,6.029,CST-1368DR,8161,11421,15406,0.054,551
2019-08-27T12:11:09,42.805,6.029,CST-1368DR,8162,11419,15402,0.055,551
2019-08-27T12:14:11,42.805,6.029,CST-1368DR,8162,11423,15408,0.054,551
2019-08-27T12:17:13,42.805,6.029,CST-1368DR,8162,11424,15409,0.053,551
2019-08-27T12:20:14,42.805,6.029,CST-1368DR,8162,11424,15409,0.053,551
2019-08-27T12:23:16,42.805,6.029,CST-1368DR,8162,11425,15410,0.053,551
2019-08-27T12:26:18,42.805,6.029,CST-1368DR,8162,11422,15406,0.054,550
2019-08-27T12:29:19,42.805,6.029,CST-1368DR,8162,11423,15407,0.054,551
2019-08-27T12:32:21,42.805,6.029,CST-1368DR,8162,11423,15407,0.054,551
2019-08-27T12:35:23,42.805,6.029,CST-1368DR,8162,11424,15408,0.054,551
2019-08-27T12:38:24,42.805,6.029,CST-1368DR,8163,11424,15407,0.054,551
2019-08-27T12:41:26,42.805,6.029,CST-1368DR,8162,11424,15408,0.054,551
2019-08-27T12:44:28,42.805,6.029,CST-1368DR,8162,11424,15408,0.054,551
2019-08-27T12:47:29,42.805,6.029,CST-1368DR,8162,11423,15407,0.054,551
2019-08-27T12:50:31,42.805,6.029,CST-1368DR,8162,11425,15409,0.053,551
2019-08-27T12:53:32,42.805,6.029,CST-1368DR,8162,11424,15409,0.053,551
2019-08-27T12:56:34,42.805,6.029,CST-1368DR,8162,11425,15410,0.053,551
2019-08-27T12:59:36,42.805,6.029,CST-1368DR,8162,11423,15408,0.054,551
2019-08-27T13:02:37,42.805,6.029,CST-1368DR,8162,11422,15406,0.054,551
2019-08-27T13:05:39,42.805,6.029,CST-1368DR,8162,11407,15386,0.059,551
2019-08-27T13:08:41,42.805,6.029,CST-1368DR,8162,11423,15407,0.054,551
2019-08-27T13:11:42,42.805,6.029,CST-1368DR,8162,11423,15407,0.054,551
2019-08-27T13:14:44,42.805,6.029,CST-1368DR,8162,11422,15406,0.054,551
2019-08-27T13:17:45,42.805,6.029,CST-1368DR,8162,11422,15406,0.054,551
2019-08-27T13:20:47,42.805,6.029,CST-1368DR,8162,11423,15407,0.054,551
2019-08-27T13:23:49,42.805,6.029,CST-1368DR,8162,11423,15408,0.054,551
2019-08-27T13:26:50,42.805,6.029,CST-1368DR,8162,11421,15404,0.055,551
2019-08-27T13:29:52,42.805,6.029,CST-1368DR,8162,11424,15408,0.054,551
2019-08-27T13:32:54,42.805,6.029,CST-1368DR,8162,11424,15408,0.054,551
2019-08-27T13:35:55,42.805,6.029,CST-1368DR,8162,11422,15406,0.054,551
2019-08-27T13:38:57,42.805,6.029,CST-1368DR,8162,11413,15394,0.057,551
2019-08-27T13:41:59,42.805,6.029,CST-1368DR,8162,11418,15401,0.055,551
2019-08-27T13:45:00,42.805,6.029,CST-1368DR,8162,11421,15404,0.055,551
2019-08-27T13:48:02,42.805,6.029,CST-1368DR,8162,11422,15406,0.054,551
2019-08-27T13:51:03,42.805,6.029,CST-1368DR,8162,11422,15405,0.054,551
2019-08-27T13:54:05,42.805,6.029,CST-1368DR,8162,11421,15405,0.054,551
2019-08-27T13:57:07,42.805,6.029,CST-1368DR,8162,11423,15407,0.054,550
2019-08-27T14:00:08,42.805,6.029,CST-1368DR,8162,11421,15405,0.054,551
2019-08-27T14:03:10,42.805,6.029,CST-1368DR,8162,11422,15406,0.054,551
2019-08-27T14:06:12,42.805,6.029,CST-1368DR,8162,11421,15405,0.054,551
2019-08-27T14:09:14,42.805,6.029,CST-1368DR,8162,11420,15403,0.055,551
2019-08-27T14:12:15,42.805,6.029,CST-1368DR,8162,11423,15407,0.054,551
2019-08-27T14:15:17,42.805,6.029,CST-1368DR,8162,11419,15402,0.055,551
2019-08-27T14:18:19,42.805,6.029,CST-1368DR,8162,11422,15406,0.054,551
2019-08-27T14:21:20,42.805,6.029,CST-1368DR,8162,11422,15406,0.054,550
2019-08-27T14:24:22,42.805,6.029,CST-1368DR,8162,11423,15407,0.054,551
2019-08-27T14:27:23,42.805,6.029,CST-1368DR,8162,11420,15403,0.055,551
2019-08-27T14:30:25,42.805,6.029,CST-1368DR,8162,11423,15407,0.054,551
2019-08-27T14:33:27,42.805,6.029,CST-1368DR,8162,11422,15406,0.054,551
2019-08-27T14:36:28,42.805,6.029,CST-1368DR,8162,11422,15406,0.054,551
2019-08-27T14:39:30,42.805,6.029,CST-1368DR,8162,11421,15405,0.054,550
2019-08-27T14:42:32,42.805,6.029,CST-1368DR,8162,11421,15404,0.055,551
2019-08-27T14:45:33,42.805,6.029,CST-1368DR,8162,11425,15409,0.053,551
2019-08-27T14:48:35,42.805,6.029,CST-1368DR,8162,11424,15408,0.054,551
2019-08-27T14:51:37,42.805,6.029,CST-1368DR,8162,11423,15407,0.054,551
2019-08-27T14:54:38,42.805,6.029,CST-1368DR,8162,11424,15409,0.053,551
2019-08-27T14:57:40,42.805,6.029,CST-1368DR,8161,11425,15411,0.053,551
2019-08-27T15:00:42,42.805,6.029,CST-1368DR,8161,11423,15409,0.053,551
2019-08-27T15:03:43,42.805,6.029,CST-1368DR,8161,11421,15406,0.054,551
2019-08-27T15:06:45,42.805,6.029,CST-1368DR,8161,11424,15411,0.053,551
2019-08-27T15:09:47,42.805,6.029,CST-1368DR,8161,11422,15408,0.054,551
2019-08-27T15:12:48,42.805,6.029,CST-1368DR,8161,11423,15409,0.053,551
2019-08-27T15:15:50,42.805,6.029,CST-1368DR,8161,11423,15409,0.053,550
2019-08-27T15:18:51,42.805,6.029,CST-1368DR,8161,11422,15408,0.054,551
2019-08-27T15:21:53,42.805,6.029,CST-1368DR,8161,11422,15408,0.054,551
2019-08-27T15:24:55,42.805,6.029,CST-1368DR,8161,11423,15409,0.053,551
2019-08-27T15:27:57,42.805,6.029,CST-1368DR,8161,11421,15407,0.054,551
2019-08-27T15:30:59,42.805,6.029,CST-1368DR,8161,11423,15409,0.053,551
2019-08-27T15:34:00,42.805,6.029,CST-1368DR,8161,11422,15408,0.054,551
2019-08-27T15:37:02,42.805,6.029,CST-1368DR,8161,11423,15409,0.053,550
2019-08-27T15:40:04,42.805,6.029,CST-1368DR,8161,11423,15409,0.053,551
2019-08-27T15:43:05,42.805,6.029,CST-1368DR,8161,11422,15408,0.054,551
2019-08-27T15:46:07,42.805,6.029,CST-1368DR,8161,11423,15409,0.053,551
2019-08-27T15:49:09,42.805,6.029,CST-1368DR,8161,11425,15412,0.053,550
2019-08-27T15:52:10,42.805,6.029,CST-1368DR,8161,11424,15411,0.053,551
2019-08-27T15:55:12,42.805,6.029,CST-1368DR,8161,11419,15403,0.055,551
2019-08-27T15:58:14,42.805,6.029,CST-1368DR,8161,11424,15410,0.053,551
2019-08-27T16:01:15,42.805,6.029,CST-1368DR,8161,11425,15412,0.053,551
2019-08-27T16:04:17,42.805,6.029,CST-1368DR,8161,11421,15406,0.054,550
2019-08-27T16:07:18,42.805,6.029,CST-1368DR,8161,11423,15410,0.053,550
2019-08-27T16:10:20,42.805,6.029,CST-1368DR,8161,11423,15409,0.053,551
2019-08-27T16:13:22,42.805,6.029,CST-1368DR,8161,11422,15407,0.054,550
2019-08-27T16:16:23,42.805,6.029,CST-1368DR,8161,11420,15405,0.054,551
2019-08-27T16:19:25,42.805,6.029,CST-1368DR,8161,11422,15408,0.054,551
2019-08-27T16:22:27,42.805,6.029,CST-1368DR,8161,11421,15407,0.054,551
2019-08-27T16:25:28,42.805,6.029,CST-1368DR,8161,11418,15402,0.055,551
2019-08-27T16:28:30,42.805,6.029,CST-1368DR,8161,11419,15404,0.055,551
2019-08-27T16:31:32,42.805,6.029,CST-1368DR,8161,11421,15406,0.054,551
2019-08-27T16:34:33,42.805,6.029,CST-1368DR,8161,11422,15408,0.054,551
2019-08-27T16:37:35,42.805,6.029,CST-1368DR,8161,11420,15405,0.054,551
2019-08-27T16:40:36,42.805,6.029,CST-1368DR,8161,11422,15408,0.054,551
2019-08-27T16:43:38,42.805,6.029,CST-1368DR,8161,11422,15408,0.054,551
2019-08-27T16:46:40,42.805,6.029,CST-1368DR,8161,11422,15408,0.054,550
2019-08-27T16:49:42,42.805,6.029,CST-1368DR,8161,11422,15408,0.054,551
2019-08-27T16:52:43,42.805,6.029,CST-1368DR,8161,11421,15407,0.054,551
2019-08-27T16:55:45,42.805,6.029,CST-1368DR,8161,11423,15409,0.053,551
2019-08-27T16:58:47,42.805,6.029,CST-1368DR,8161,11422,15408,0.054,551
2019-08-27T17:01:48,42.805,6.029,CST-1368DR,8161,11420,15405,0.054,550
2019-08-27T17:04:50,42.805,6.029,CST-1368DR,8161,11423,15409,0.053,551
2019-08-27T17:07:51,42.805,6.029,CST-1368DR,8160,11423,15410,0.053,551
2019-08-27T17:10:53,42.805,6.029,CST-1368DR,8160,11422,15409,0.053,551